Location: *
(38.4303°S, 157.0822°W)
Time: 14:47:25
(UTC+00:00)

Cosmos 2360 Rocket - Pass Details

Date: 21 May 2024
Orbit: 832 x 846 km, 71.0° (Epoch: 14 June)

Event Time Altitude Azimuth Distance (km) Brightness Sun altitude
Rises 14:47:06 0° 5° (N) 3,386 5.4 -31.4°
Reaches altitude 10° 14:49:45 10° 14° (NNE) 2,458 4.8 -30.9°
Maximum altitude 14:54:44 33° 76° (ENE) 1,387 3.8 -29.9°
Drops below altitude 10° 14:59:45 10° 138° (SE) 2,477 5.0 -28.9°
Sets 15:02:25 0° 147° (SSE) 3,417 5.7 -28.4°
